Tracking 35275 objects as of 8-Sep-2026
HD Live streaming from Space Station
objects crossing your sky now

STARLINK-1283

Track STARLINK-1283 now!
10-day predictions
STARLINK-1283 is classified as:


NORAD ID: 45389
Int'l Code: 2020-019AF
Launch date: March 18, 2020
Source: United States (US)
Launch site: AIR FORCE EASTERN TEST RANGE (AFETR)
Your satellite tracking list
Your tracking list is empty




NASA's NSSDC Master Catalog

Two Line Element Set (TLE):
1 45389U 20019AF  26250.80817538  .00128360  00000-0  49803-3 0  9993
2 45389  53.0296 286.6931 0004946  32.6070 327.5258 15.86300105359178
Source of the keplerian elements: AFSPC